TimeCST,TemperatureF,Dew PointF,Humidity,Sea Level PressureIn,VisibilityMPH,Wind Direction,Wind SpeedMPH,Gust SpeedMPH,PrecipitationIn,Events,Conditions,WindDirDegrees,DateUTC
12:15 AM,-7.6,-14.8,71,30.16,10.0,Calm,Calm,-,N/A,,Overcast,0,2014-01-07 06:15:00
12:34 AM,-7.6,-14.8,71,30.16,10.0,Calm,Calm,-,N/A,,Scattered Clouds,0,2014-01-07 06:34:00
12:54 AM,-5.8,-13.0,71,30.14,10.0,SW,6.9,-,N/A,,Scattered Clouds,220,2014-01-07 06:54:00
1:15 AM,-5.8,-13.0,71,30.13,10.0,WSW,4.6,-,N/A,,Scattered Clouds,240,2014-01-07 07:15:00
1:34 AM,-5.8,-13.0,71,30.12,10.0,WSW,3.5,-,N/A,,Mostly Cloudy,250,2014-01-07 07:34:00
1:54 AM,-4.0,-11.2,71,30.11,10.0,Calm,Calm,-,N/A,,Overcast,0,2014-01-07 07:54:00
2:15 AM,-4.0,-11.2,71,30.11,10.0,SSW,5.8,-,N/A,,Overcast,200,2014-01-07 08:15:00
2:34 AM,-4.0,-9.4,78,30.12,10.0,SSW,5.8,-,N/A,,Overcast,210,2014-01-07 08:34:00
2:54 AM,-2.2,-9.4,71,30.12,10.0,SW,9.2,-,N/A,,Overcast,220,2014-01-07 08:54:00
3:15 AM,-0.4,-9.4,66,30.11,10.0,SSW,9.2,-,N/A,,Overcast,210,2014-01-07 09:15:00
3:34 AM,-0.4,-7.6,72,30.11,10.0,SW,5.8,-,N/A,,Mostly Cloudy,220,2014-01-07 09:34:00
3:54 AM,-0.4,-7.6,72,30.10,10.0,SSW,3.5,-,N/A,,Mostly Cloudy,210,2014-01-07 09:54:00
4:15 AM,-0.4,-7.6,72,30.10,10.0,SSW,3.5,-,N/A,,Scattered Clouds,210,2014-01-07 10:15:00
4:34 AM,-0.4,-7.6,72,30.09,10.0,Calm,Calm,-,N/A,,Clear,0,2014-01-07 10:34:00
4:54 AM,-0.4,-7.6,72,30.08,10.0,Calm,Calm,-,N/A,,Clear,0,2014-01-07 10:54:00
5:15 AM,-0.4,-7.6,72,30.08,10.0,South,6.9,-,N/A,,Mostly Cloudy,190,2014-01-07 11:15:00
5:34 AM,-0.4,-7.6,72,30.08,10.0,SSW,5.8,-,N/A,,Overcast,200,2014-01-07 11:34:00
5:54 AM,1.4,-7.6,66,30.07,10.0,South,4.6,-,N/A,,Scattered Clouds,190,2014-01-07 11:54:00
6:15 AM,1.4,-5.8,72,30.07,10.0,South,4.6,-,N/A,,Clear,180,2014-01-07 12:15:00
6:34 AM,1.4,-5.8,72,30.06,10.0,SSE,5.8,-,N/A,,Scattered Clouds,160,2014-01-07 12:34:00
6:54 AM,1.4,-5.8,72,30.06,10.0,SSE,4.6,-,N/A,,Clear,160,2014-01-07 12:54:00
7:15 AM,1.4,-5.8,72,30.06,10.0,Calm,Calm,-,N/A,,Mostly Cloudy,0,2014-01-07 13:15:00
7:34 AM,1.4,-5.8,72,30.06,10.0,Calm,Calm,-,N/A,,Overcast,0,2014-01-07 13:34:00
7:55 AM,1.4,-5.8,72,30.05,10.0,SE,4.6,-,N/A,,Overcast,130,2014-01-07 13:55:00
8:14 AM,1.4,-5.8,72,30.06,10.0,SE,3.5,-,N/A,,Overcast,130,2014-01-07 14:14:00
8:35 AM,1.4,-5.8,72,30.06,10.0,ESE,3.5,-,N/A,,Overcast,110,2014-01-07 14:35:00
8:54 AM,3.2,-5.8,66,30.07,10.0,East,3.5,-,N/A,,Mostly Cloudy,100,2014-01-07 14:54:00
9:14 AM,3.2,-5.8,66,30.08,10.0,Calm,Calm,-,N/A,,Overcast,0,2014-01-07 15:14:00
9:35 AM,3.2,-4.0,72,30.08,10.0,Calm,Calm,-,N/A,,Overcast,0,2014-01-07 15:35:00
9:54 AM,3.2,-4.0,72,30.09,10.0,Calm,Calm,-,N/A,,Overcast,0,2014-01-07 15:54:00
10:14 AM,5.0,-4.0,66,30.09,10.0,Calm,Calm,-,N/A,,Overcast,0,2014-01-07 16:14:00
10:35 AM,5.0,-4.0,66,30.09,10.0,East,4.6,-,N/A,,Overcast,80,2014-01-07 16:35:00
10:54 AM,6.8,-4.0,61,30.09,10.0,ENE,4.6,-,N/A,,Scattered Clouds,60,2014-01-07 16:54:00
11:14 AM,6.8,-4.0,61,30.08,10.0,ENE,4.6,-,N/A,,Mostly Cloudy,60,2014-01-07 17:14:00
11:35 AM,8.6,-4.0,57,30.08,10.0,East,3.5,-,N/A,,Scattered Clouds,80,2014-01-07 17:35:00
11:54 AM,8.6,-4.0,57,30.06,10.0,East,4.6,-,N/A,,Clear,80,2014-01-07 17:54:00
12:14 PM,8.6,-2.2,62,30.07,10.0,ENE,4.6,-,N/A,,Clear,60,2014-01-07 18:14:00
12:34 PM,8.6,-4.0,57,30.06,10.0,NNE,4.6,-,N/A,,Clear,30,2014-01-07 18:34:00
12:54 PM,10.4,-2.2,57,30.06,10.0,Calm,Calm,-,N/A,,Clear,0,2014-01-07 18:54:00
1:15 PM,10.4,-2.2,57,30.06,10.0,Calm,Calm,-,N/A,,Clear,0,2014-01-07 19:15:00
1:34 PM,10.4,-2.2,57,30.07,10.0,NNE,3.5,-,N/A,,Clear,30,2014-01-07 19:34:00
1:54 PM,10.4,-0.4,62,30.07,10.0,North,3.5,-,N/A,,Mostly Cloudy,360,2014-01-07 19:54:00
2:15 PM,10.4,-0.4,62,30.08,10.0,North,4.6,-,N/A,,Overcast,10,2014-01-07 20:15:00
2:34 PM,10.4,1.4,67,30.09,10.0,North,3.5,-,N/A,,Overcast,10,2014-01-07 20:34:00
2:54 PM,10.4,1.4,67,30.10,10.0,NNE,5.8,-,N/A,,Overcast,20,2014-01-07 20:54:00
3:15 PM,10.4,1.4,67,30.11,10.0,North,8.1,-,N/A,,Overcast,360,2014-01-07 21:15:00
3:34 PM,10.4,1.4,67,30.11,10.0,North,6.9,-,N/A,,Overcast,350,2014-01-07 21:34:00
3:54 PM,10.4,1.4,67,30.12,10.0,North,6.9,-,N/A,,Overcast,350,2014-01-07 21:54:00
4:15 PM,10.4,1.4,67,30.13,10.0,North,6.9,-,N/A,,Overcast,360,2014-01-07 22:15:00
4:34 PM,10.4,-0.4,62,30.14,10.0,North,4.6,-,N/A,,Overcast,360,2014-01-07 22:34:00
4:54 PM,8.6,1.4,73,30.14,10.0,NNW,4.6,-,N/A,,Overcast,340,2014-01-07 22:54:00
5:15 PM,8.6,1.4,73,30.14,10.0,NW,3.5,-,N/A,Snow,Light Snow,320,2014-01-07 23:15:00
5:34 PM,8.6,1.4,73,30.15,10.0,NNW,3.5,-,N/A,,Overcast,340,2014-01-07 23:34:00
5:54 PM,8.6,1.4,73,30.16,10.0,North,4.6,-,N/A,,Overcast,350,2014-01-07 23:54:00
6:15 PM,8.6,1.4,73,30.17,10.0,North,3.5,-,N/A,,Overcast,350,2014-01-08 00:15:00
6:34 PM,8.6,1.4,73,30.17,10.0,NNW,3.5,-,N/A,,Overcast,340,2014-01-08 00:34:00
6:54 PM,8.6,1.4,73,30.18,10.0,NW,3.5,-,N/A,,Overcast,320,2014-01-08 00:54:00
7:15 PM,8.6,1.4,73,30.18,10.0,NNW,3.5,-,N/A,,Overcast,340,2014-01-08 01:15:00
7:34 PM,8.6,1.4,73,30.18,10.0,NNW,3.5,-,N/A,,Overcast,330,2014-01-08 01:34:00
7:54 PM,8.6,1.4,73,30.19,10.0,NNW,3.5,-,N/A,,Overcast,340,2014-01-08 01:54:00
8:15 PM,8.6,1.4,73,30.20,10.0,NNW,3.5,-,N/A,,Overcast,330,2014-01-08 02:15:00
8:34 PM,8.6,1.4,73,30.20,10.0,NNW,3.5,-,N/A,,Overcast,340,2014-01-08 02:34:00
8:54 PM,8.6,1.4,73,30.21,10.0,NNW,3.5,-,N/A,,Overcast,340,2014-01-08 02:54:00
9:15 PM,8.6,1.4,73,30.20,10.0,Calm,Calm,-,N/A,,Overcast,0,2014-01-08 03:15:00
9:34 PM,8.6,1.4,73,30.20,10.0,Calm,Calm,-,N/A,,Overcast,0,2014-01-08 03:34:00
9:54 PM,8.6,1.4,73,30.20,10.0,NNW,3.5,-,N/A,,Overcast,340,2014-01-08 03:54:00
10:15 PM,8.6,1.4,73,30.21,10.0,NW,3.5,-,N/A,,Overcast,320,2014-01-08 04:15:00
10:34 PM,8.6,1.4,73,30.21,10.0,NNW,4.6,-,N/A,,Overcast,330,2014-01-08 04:34:00
10:54 PM,6.8,-0.4,72,30.22,10.0,NNW,3.5,-,N/A,,Overcast,330,2014-01-08 04:54:00
11:15 PM,6.8,-0.4,72,30.23,10.0,North,3.5,-,N/A,,Overcast,350,2014-01-08 05:15:00
11:34 PM,6.8,-0.4,72,30.24,10.0,Calm,Calm,-,N/A,,Overcast,0,2014-01-08 05:34:00
11:54 PM,6.8,-0.4,72,30.24,10.0,Calm,Calm,-,N/A,,Overcast,0,2014-01-08 05:54:00